This is the latest recevied weather packets stored in our database for station/object N9NDF. If no packets are shown the sender has not sent any weather packets the latest 1 day(s).
| Time | Temp. | Humidity | Pressure | Rain* | Wind** | Luminosity | Snow |
|---|---|---|---|---|---|---|---|
| 1777984291 | 8.33° C | 78% | 988.6 hPa | 1.02 mm | 0.89 m/s, 344° | 26 W/m² | - |
| 1777984236 | 8.33° C | 78% | 988.7 hPa | 1.02 mm | 0.89 m/s, 333° | 24 W/m² | - |
| 1777984170 | 8.89° C | 78% | 988.7 hPa | 1.02 mm | 0.89 m/s, 347° | 21 W/m² | - |
| 1777984119 | 8.89° C | 78% | 988.7 hPa | 1.02 mm | 0.89 m/s, 351° | 18 W/m² | - |
| 1777984104 | 8.89° C | 78% | 988.8 hPa | 1.02 mm | 0.89 m/s, 336° | 17 W/m² | - |
| 1777983991 | 8.89° C | 77% | 988.8 hPa | 1.02 mm | 0.89 m/s, 334° | 17 W/m² | - |
| 1777983929 | 8.89° C | 77% | 988.8 hPa | 0.76 mm | 0.89 m/s, 358° | 19 W/m² | - |
| 1777983869 | 8.89° C | 77% | 988.8 hPa | 0.76 mm | 0.89 m/s, 354° | 19 W/m² | - |
| 1777983809 | 8.89° C | 75% | 988.8 hPa | 0.76 mm | 0.89 m/s, 348° | 22 W/m² | - |
| 1777983749 | 8.89° C | 76% | 988.8 hPa | 0.76 mm | 0.89 m/s, 348° | 23 W/m² | - |
| 1777983689 | 9.44° C | 75% | 988.9 hPa | 0.51 mm | 0.89 m/s, 353° | 22 W/m² | - |
| 1777983636 | 9.44° C | 74% | 988.9 hPa | 0.51 mm | 0.89 m/s, 326° | 21 W/m² | - |
| 1777983569 | 9.44° C | 75% | 989 hPa | 0.51 mm | 0.89 m/s, 346° | 19 W/m² | - |
| 1777983508 | 9.44° C | 74% | 989 hPa | 0.51 mm | 0.89 m/s, 347° | 17 W/m² | - |
| 1777983450 | 9.44° C | 73% | 989.1 hPa | 0.25 mm | 0.89 m/s, 324° | 16 W/m² | - |
| 1777983389 | 9.44° C | 74% | 989.1 hPa | 0.25 mm | 0.89 m/s, 198° | 15 W/m² | - |
| 1777983329 | 9.44° C | 73% | 989 hPa | 0.25 mm | 0.89 m/s, 332° | 14 W/m² | - |
| 1777983268 | 9.44° C | 73% | 989 hPa | 0.25 mm | 0.89 m/s, 323° | 13 W/m² | - |
| 1777983209 | 9.44° C | 73% | 989 hPa | 0.25 mm | 0.89 m/s, 306° | 13 W/m² | - |
| 1777983149 | 10° C | 72% | 989.1 hPa | 0.25 mm | 0.45 m/s, 41° | 12 W/m² | - |
| 1777983089 | 10° C | 72% | 989 hPa | 0.25 mm | 0.45 m/s, 320° | 12 W/m² | - |
| 1777983035 | 10° C | 72% | 989.1 hPa | 0.25 mm | 0.45 m/s, 346° | 11 W/m² | - |
| 1777982969 | 10° C | 71% | 989.1 hPa | 0.25 mm | 0.45 m/s, 3° | 12 W/m² | - |
| 1777982922 | 10° C | 71% | 989.1 hPa | 0.25 mm | 0.45 m/s, 3° | 13 W/m² | - |
| 1777982849 | 10° C | 70% | 989.1 hPa | 0.25 mm | 0.45 m/s, 340° | 13 W/m² | - |
* Rain latest hour (hover to see other rain measurements)
** Current wind speed in m/s (hover to see current wind gust speed)